SCP
1 1 1 1 1 1 1 1 1 2 2 1 1 1 1 1 1 1 1 1 1 1 1 0 0 1 1 0 0 0 0 0 0 0 0 0 0 0 0 0 0 0 0
1 1 1 1 2 1 1 1 1 2 3 2 1 1 1 1 1 1 1 1 1 1 1 1 1 1 1 1 0 0 0 0 0 0 0 0 0 0 0 0 0 0 0
1 1 1 2 2 1 1 1 1 1 2 1 1 1 1 1 1 1 2 2 1 1 1 1 1 1 1 1 1 0 0 0 0 0 0 0 0 0 0 0 0 0 0
2 2 2 2 1 1 1 1 1 1 1 1 1 1 1 1 1 1 2 2 1 1 1 1 1 1 1 1 1 1 1 0 0 0 0 0 0 0 0 0 0 0 0
2 2 2 2 2 2 2 1 1 1 1 1 1 1 1 1 1 1 2 2 2 2 1 1 1 1 1 1 1 1 1 1 1 0 0 0 0 0 0 0 0 0 0
2 2 2 2 2 2 2 2 2 2 2 2 1 1 1 1 1 1 2 2 2 2 2 2 1 1 1 1 1 1 1 1 1 1 0 0 0 0 0 0 0 0 0
2 2 2 2 2 2 2 2 2 2 2 2 2 1 1 1 1 1 1 2 2 3 2 2 2 2 1 1 0 0 0 0 0 0 0 0 0 0 0 0 0 0 0
2 2 2 2 2 2 2 2 2 2 2 2 1 1 1 1 1 0 0 1 2 2 3 3 3 2 2 1 1 0 0 0 0 0 0 0 0 0 0 0 0 0 0
2 2 2 2 2 2 2 3 3 2 2 1 1 1 1 1 1 0 0 1 1 2 2 2 3 3 2 1 1 1 0 0 0 0 0 0 0 0 0 0 0 0 0
2 2 2 2 2 2 2 3 3 2 2 1 1 1 1 1 1 0 0 1 1 1 2 2 2 2 2 1 1 1 1 0 0 0 0 0 0 0 0 0 0 0 0
1 1 1 1 2 2 2 3 2 2 2 2 2 2 1 1 0 0 0 1 1 2 2 2 2 2 1 0 1 1 1 1 0 0 0 0 0 0 0 0 0 0 0
1 1 1 1 1 1 2 2 2 2 2 2 2 2 1 1 0 0 0 0 1 1 2 2 2 2 1 0 0 1 1 0 0 0 0 0 0 0 0 0 0 0 0
1 1 1 1 1 1 1 2 2 2 2 2 2 2 1 1 0 0 0 0 0 0 1 1 2 2 1 0 0 0 0 0 0 0 0 0 0 0 0 0 0 0 0
1 1 1 1 1 1 1 1 1 1 1 1 1 1 1 0 0 0 0 0 0 0 0 0 1 1 0 0 0 0 0 0 0 0 0 0 0 0 0 0 0 0 0
1 1 1 1 1 0 0 0 1 1 1 0 0 0 0 0 0 0 0 0 0 0 0 0 0 0 0 0 0 0 0 0 0 0 0 0 0 0 0 0 0 0 0
0 0 0 0 0 0 0 0 0 0 0 0 0 0 0 0 0 0 0 0 0 0 0 0 0 0 0 0 0 1 0 0 0 0 0 0 0 0 0 0 0 0 0
0 0 0 0 0 0 0 0 0 0 0 0 0 0 0 0 0 0 0 0 0 0 0 0 0 0 0 0 0 0 0 0 0 0 0 0 0 0 0 0 0 0 0
0 0 0 0 0 0 0 0 0 0 0 0 0 0 0 0 0 0 0 0 0 0 0 0 0 0 0 0 0 0 0 0 0 0 0 0 0 0 0 0 0 0 0
0 0 0 0 0 0 0 0 0 0 0 0 0 0 0 0 0 0 0 0 0 0 0 0 0 0 0 0 0 0 0 0 0 0 0 0 0 0 0 0 0 0 0
0 0 0 0 0 0 0 0 0 0 0 0 0 0 0 0 0 0 0 0 0 0 0 0 0 0 0 0 0 0 0 0 0 0 0 0 0 0 0 0 0 0 0
0 0 0 0 0 0 0 0 0 0 0 0 0 0 0 0 0 0 0 0 0 0 0 0 0 0 0 0 0 0 0 0 0 0 0 0 0 0 0 0 0 0 0
0 0 0 0 0 0 0 0 0 0 0 0 0 0 0 0 0 0 0 0 0 0 0 0 0 0 0 0 0 0 0 0 0 0 0 0 0 0 0 0 0 0 0
0 0 0 0 0 0 0 0 0 0 0 0 0 0 0 0 0 0 0 0 0 0 0 0 0 0 0 0 0 0 0 0 0 0 0 0 0 0 0 0 0 0 0
0 0 0 0 0 0 0 0 0 0 0 0 0 0 0 0 0 0 0 0 0 0 0 0 0 0 0 0 0 0 0 0 0 0 0 0 0 0 0 0 0 0 0
0 0 0 0 0 0 0 0 0 0 0 0 0 0 0 0 0 0 0 0 0 0 0 0 0 0 0 0 0 0 0 0 0 0 0 0 0 0 0 0 0 0 0
0 0 0 0 0 0 0 0 0 0 0 0 0 0 0 0 0 0 0 0 0 0 0 0 0 0 0 0 0 0 0 0 0 0 0 0 0 0 0 0 0 0 0
Wind_Speed
5 4 4 4 4 4 4 5 5 4 4 4 5 5 5 5 4 4 4 4 4 3 3 3 3 2 1 1 1 1 2 2 3 2 2 1 0 1 1 2 2 3 3
5 4 4 3 4 4 4 4 4 4 4 4 4 4 4 4 4 5 5 5 5 4 4 3 3 2 2 2 1 1 1 2 3 2 1 1 1 1 1 1 1 2 2
4 4 3 3 3 3 3 3 3 3 3 3 3 4 3 3 4 4 5 5 4 4 4 3 3 3 2 2 2 1 1 1 2 2 2 1 1 1 1 1 1 1 0
4 4 3 3 3 3 3 3 3 3 3 3 3 3 2 2 3 3 4 4 3 3 3 3 3 3 3 3 2 2 1 1 1 1 1 0 0 1 1 1 1 1 1
5 4 4 3 3 3 3 3 3 3 3 3 2 2 1 1 2 3 3 4 3 3 2 2 2 3 3 2 2 2 2 1 1 1 0 1 1 1 0 0 1 0 1
5 4 3 3 3 3 3 3 3 3 3 3 2 2 2 1 2 4 4 3 3 3 2 1 1 2 2 3 3 3 3 3 2 2 1 1 0 0 0 0 1 1 1
4 4 4 4 4 3 3 4 3 3 3 3 3 3 2 2 3 4 5 4 3 2 2 1 1 1 2 2 3 4 4 4 3 3 2 1 1 0 1 1 1 1 0
4 4 4 4 4 3 4 4 4 3 3 3 3 3 3 3 4 6 7 5 4 3 2 2 2 2 2 3 4 4 4 4 3 2 2 2 1 1 1 1 1 1 1
4 4 4 4 4 4 4 4 3 4 4 4 3 4 4 3 4 5 7 5 5 4 4 3 3 3 4 6 6 6 5 4 6 8 8 7 7 6 3 3 3 2 2
3 3 3 4 4 4 4 4 4 5 5 5 5 4 4 4 4 6 6 4 5 4 4 5 7 5 6 6 5 5 5 3 4 5 6 6 5 6 8 4 2 2 2
4 5 5 4 4 5 4 4 5 5 6 6 6 5 5 5 6 7 6 4 5 5 4 3 4 8 9 9 7 5 5 4 4 5 4 4 5 5 5 5 4 3 3
6 6 6 5 5 5 6 5 5 6 7 6 6 6 5 5 7 7 9 8 7 6 4 3 4 9 11 10 8 9 9 7 5 5 5 4 4 4 4 4 5 4 3
7 7 6 7 6 5 5 5 5 5 5 5 5 5 4 4 6 10 10 10 10 6 5 8 9 10 10 9 11 11 8 5 5 5 5 3 3 3 4 4 5 5 5
8 7 6 7 7 7 6 5 5 4 5 5 5 5 4 4 4 4 5 6 8 8 6 8 11 12 10 9 8 7 5 5 5 4 3 3 3 4 4 4 3 3 4
8 7 7 7 8 8 8 7 5 4 3 5 4 4 5 4 3 5 5 5 4 5 6 6 6 6 6 6 5 5 5 5 5 4 4 4 4 4 3 3 3 3 3
7 6 6 6 6 6 7 8 14 12 13 12 10 8 6 7 9 10 11 10 9 9 8 6 5 5 5 4 5 5 5 4 4 4 4 4 3 3 3 3 3 3 2
8 7 6 6 6 5 6 7 8 10 15 15 13 12 11 11 12 12 12 12 11 10 7 5 5 4 4 4 4 4 3 3 3 4 4 4 3 3 3 3 3 3 2
7 8 7 6 6 6 6 6 6 7 7 6 8 11 12 12 12 12 12 11 8 7 5 5 4 4 4 4 4 4 4 4 4 4 4 4 3 3 3 3 3 2 2
7 6 6 6 6 6 6 6 6 7 6 5 4 6 8 10 11 11 10 7 6 5 4 4 4 4 4 4 4 4 4 4 4 4 4 4 3 3 3 3 3 4 3
7 11 9 6 6 6 6 6 6 6 6 5 4 3 3 5 6 5 5 5 5 4 4 4 4 4 4 4 4 4 4 4 4 4 3 3 3 3 3 3 3 2 2
6 8 11 8 6 6 6 6 5 5 5 4 3 3 6 5 5 4 4 4 4 4 4 4 4 4 4 4 4 4 5 3 3 3 3 3 3 2 2 2 3 2 2
6 5 5 6 5 5 5 5 5 5 5 5 3 4 7 5 4 4 4 3 3 3 4 4 4 3 3 3 3 3 3 3 3 3 3 3 3 3 3 3 3 2 2
6 6 5 5 5 6 6 5 5 5 4 4 4 4 4 3 3 3 3 3 3 3 3 4 4 3 3 2 2 3 2 1 0 1 1 2 3 3 3 3 3 3 3
6 6 6 5 5 5 5 4 4 5 5 4 4 4 3 3 3 3 3 3 3 3 3 3 4 5 5 3 2 1 1 1 0 0 1 1 2 2 3 3 3 3 3
5 6 6 5 5 5 5 4 4 4 4 4 4 3 3 3 3 3 3 3 4 4 4 3 3 3 5 4 3 1 1 0 1 1 1 1 2 3 3 3 3 3 3
6 6 5 5 5 4 4 4 4 4 4 3 3 3 3 3 3 3 3 3 3 3 3 3 3 4 4 3 3 2 1 1 2 2 1 1 2 2 3 3 4 3 4
Wind_Direction
176 178 175 181 185 184 186 188 187 186 189 186 184 183 184 188 187 178 180 179 187 201 202 196 206 199 192 198 158 149 162 159 192 262 278 292 264 214 194 204 211 219 225
173 170 177 177 175 179 187 189 181 183 182 179 174 171 180 183 182 185 189 185 189 199 205 201 219 209 206 202 173 171 181 178 174 218 280 307 296 232 190 191 211 210 217
164 165 172 174 170 177 177 169 165 170 168 168 162 168 176 179 184 192 185 185 191 200 197 196 213 197 209 209 186 189 207 191 166 174 229 250 294 354 39 5 31 357 208
161 163 169 174 170 167 155 145 150 162 165 162 163 164 171 179 182 186 178 178 183 185 184 184 188 186 201 203 192 206 202 172 148 149 192 251 326 346 82 65 18 358 3
160 161 167 169 164 149 143 146 148 153 163 158 147 142 140 153 176 171 165 163 162 168 172 169 156 143 153 172 179 190 173 154 138 127 128 59 31 42 62 139 143 328 10
149 158 157 145 136 136 145 145 142 144 140 129 127 134 128 163 137 146 150 147 142 151 165 170 139 116 104 108 111 114 130 154 166 151 151 143 198 149 5 87 107 69 339
144 146 143 143 144 152 154 142 141 142 131 129 136 131 124 112 120 129 132 130 121 124 134 132 116 77 96 102 87 76 64 63 112 148 143 173 176 213 113 63 75 94 274
141 141 141 142 146 146 141 142 141 131 126 120 117 117 111 92 109 126 126 120 110 101 99 113 117 98 90 109 104 84 65 45 58 92 115 116 112 135 154 160 154 111 58
124 132 139 140 137 136 137 140 138 125 113 103 102 101 100 79 90 121 126 111 100 83 71 75 102 107 92 104 106 101 83 55 59 75 81 78 69 59 64 76 66 81 49
106 112 115 128 135 136 136 131 117 112 112 107 90 82 87 81 84 113 125 116 105 92 66 55 62 78 84 98 111 113 103 86 79 74 62 52 49 45 47 59 80 96 90
88 88 85 90 105 112 111 108 110 111 109 103 94 77 70 69 74 87 105 114 119 107 87 61 50 71 76 76 83 90 102 102 87 81 67 48 41 37 32 34 45 84 96
87 85 81 78 85 94 101 101 101 108 106 101 93 79 60 54 61 76 85 92 102 101 94 78 66 67 70 70 73 74 79 81 77 73 64 49 38 29 23 29 38 47 65
93 88 84 79 75 77 90 101 100 99 104 104 99 89 70 55 55 67 77 82 85 88 88 87 80 73 68 66 67 71 73 73 76 73 65 48 29 23 29 34 30 34 34
100 92 85 82 75 67 63 68 86 93 102 104 103 99 85 64 54 59 72 76 76 81 81 75 72 69 67 64 59 56 58 68 80 80 71 45 35 41 39 35 35 28 34
97 95 89 84 84 75 66 53 62 57 95 114 111 114 110 93 65 83 93 86 87 93 94 78 68 65 63 58 56 53 53 56 61 56 57 50 44 45 35 29 39 44 46
106 100 97 96 93 94 93 75 54 66 70 76 88 97 85 94 95 87 86 88 91 96 90 85 80 76 76 75 73 62 54 53 53 57 55 51 46 45 34 25 37 46 38
115 113 108 107 105 103 102 103 94 67 62 65 73 83 89 90 86 85 85 83 82 86 84 84 84 82 79 75 73 71 59 46 51 56 54 43 39 38 38 28 23 26 15
111 113 114 111 108 104 101 100 102 105 93 66 54 69 77 80 79 79 83 81 68 64 77 85 84 81 79 75 71 68 60 49 46 46 45 40 37 39 34 23 19 21 8
111 114 112 110 107 107 105 102 100 99 99 96 81 63 65 72 69 68 73 81 86 78 75 75 77 80 79 78 76 71 67 59 50 46 39 33 30 38 30 17 12 14 22
109 116 114 113 111 110 108 105 103 103 101 99 96 93 80 77 72 61 64 78 84 84 82 80 77 79 82 81 77 73 66 56 46 41 30 22 21 34 30 17 12 7 355
115 118 116 113 111 113 113 112 112 109 108 104 97 99 107 98 94 89 85 84 91 95 92 87 83 81 81 82 83 79 74 59 46 38 27 15 13 15 7 9 4 1 348
111 110 111 114 114 115 118 121 121 119 120 117 101 88 96 92 94 95 95 94 95 98 105 102 94 89 95 100 100 92 79 60 39 28 21 11 6 4 2 359 353 345 340
111 112 109 109 112 119 115 114 118 119 119 120 117 105 99 101 106 109 109 108 104 101 99 104 106 99 91 91 95 107 109 101 36 21 19 4 359 355 349 342 337 336 336
114 117 117 116 112 113 118 121 125 127 127 128 125 123 125 127 126 124 123 121 118 114 113 115 122 130 129 120 107 107 130 177 209 327 1 346 343 339 337 336 334 332 330
113 115 115 117 118 119 119 121 124 127 130 133 136 136 134 133 136 139 138 135 134 133 134 133 133 139 146 150 154 163 183 236 327 317 321 336 336 331 329 326 326 325 326
113 116 117 119 120 122 125 126 125 127 127 129 133 138 140 142 148 149 149 147 145 147 149 152 161 163 166 171 178 181 201 271 319 333 338 343 344 332 328 320 324 326 326